Regional Weather Roundup
Issued by NWS Goodland, KS

Home | Current Version | Previous Version | Graphics & Text | Print | Product List | Glossary On
Versions: 1 2 3 4 5 6 7 8 9 10 11 12 13 14 15 16 17 18 19 20 21 22 23 24 25 26 27 28 29 30 31 32 33 34 35 36 37 38 39 40 41 42 43 44 45 46 47 48 49 50
000
ASUS43 KGLD 292208
RWRGLD

GOODLAND FORECAST AREA HOURLY WEATHER ROUNDUP
NATIONAL WEATHER SERVICE GOODLAND KS
400 PM MDT TUE JUL 29 2014

...OFFICIAL OBSERVATIONS...

CITY           SKY/WX    TMP DP  RH WIND       PRES   REMARKS
GOODLAND KS    CLOUDY    84  59  42 SE14      30.11F
HILL CITY KS   MOSUNNY   89  56  32 SE12G22   30.09F
IMPERIAL NEB   MOSUNNY   85  60  42 E15       30.12F
MCCOOK NEB     PTSUNNY   85  58  39 E15       30.11F
AKRON CO       PTSUNNY   82  54  37 SE17G28   30.13F
BURLINGTON CO  CLOUDY    81  59  47 SE17      30.12F
LIMON CO       LGT RAIN  61  58  90 NE12      30.21F
$$

...UNOFFICIAL OBSERVATIONS...

CITY           SKY/WX    TMP DP  RH WIND       PRES   REMARKS
COLBY KS       MOSUNNY   86  63  45 E14       30.10F
GOVE KS          N/A     88  32  13 MISG        N/A
NORTON KS      MOSUNNY   84  52  32 E12       30.10F
OBERLIN KS     FAIR      88  55  33 E9G22     30.10F
ST FRANCIS KS  PTSUNNY   86  52  30 SE15G24   30.08F
WAKEENEY KS      N/A     90  52  27 MISG        N/A
TRENTON NEB      N/A     86  32  14 E17         N/A
KIT CARSON CO    N/A     83  61  46 N12G21      N/A
YUMA CO          N/A     83  56  39 E16         N/A
$$



USA.gov is the U.S. government's official web portal to all federal, state and local government web resources and services.